EWG8KG EDDK-LGIR

Flight info

Callsign EWG8KG
Flight time 3h 6m
Altitude 35000
Route KUMIK8F KUMIK L603 TESGA DCT ESATI DCT DETEV DCT DINKU M867 XERUM DCT BAVAX DCT RADIZ DCT NEMEK DCT VRANA DCT PETAK DCT PINDO UL607 GIVIS T514 XAVIS
Aircraft A320/M-SDE3FGHIRWY/LB1

Departure

Time 2026-04-30 08:01
Airport Cologne Bonn Airport (EDDK)

Arrival

Time 2026-04-30 11:08
Airport Heraklion International Nikos Kazantzakis Airport (LGIR)
Time Latitude Longitude Altitude Speed Heading
2026-04-30 07:33 50.87962 7.12412 231 ft 0 kts 246°
2026-04-30 07:39 50.87964 7.12415 230 ft 0 kts 246°
2026-04-30 07:54 50.87972 7.12445 230 ft 4 kts 246°
2026-04-30 07:54 50.87981 7.12477 233 ft 4 kts 234°
2026-04-30 07:54 50.88000 7.12503 230 ft 4 kts 191°
2026-04-30 07:55 50.88023 7.12498 231 ft 4 kts 142°
2026-04-30 07:55 50.88034 7.12481 234 ft 0 kts 120°
2026-04-30 07:57 50.88023 7.12513 234 ft 10 kts 120°
2026-04-30 07:57 50.87981 7.12618 231 ft 10 kts 122°
2026-04-30 07:58 50.87985 7.12717 233 ft 8 kts 70°
2026-04-30 07:58 50.87995 7.12755 235 ft 0 kts 65°
2026-04-30 08:00 50.88006 7.12806 239 ft 9 kts 76°
2026-04-30 08:00 50.88009 7.12894 237 ft 8 kts 93°
2026-04-30 08:00 50.88000 7.12974 238 ft 7 kts 115°
2026-04-30 08:00 50.87940 7.13061 241 ft 29 kts 137°
2026-04-30 08:01 50.87613 7.13540 247 ft 96 kts 137°
2026-04-30 08:01 50.86998 7.14429 258 ft 144 kts 138°
2026-04-30 08:01 50.86178 7.15581 593 ft 157 kts 135°
2026-04-30 08:01 50.85364 7.16722 1171 ft 162 kts 134°
2026-04-30 08:02 50.83586 7.19312 2120 ft 193 kts 134°
2026-04-30 08:02 50.82559 7.20832 2678 ft 204 kts 131°
2026-04-30 08:03 50.81196 7.24590 4338 ft 209 kts 98°
2026-04-30 08:03 50.80902 7.29582 5404 ft 240 kts 97°
2026-04-30 08:03 50.80707 7.32241 6162 ft 246 kts 97°
2026-04-30 08:04 50.80491 7.34948 6976 ft 251 kts 97°
2026-04-30 08:04 50.80261 7.37699 7739 ft 254 kts 97°
2026-04-30 08:04 50.80022 7.40485 8528 ft 258 kts 97°
2026-04-30 08:04 50.79777 7.43311 9320 ft 261 kts 97°
2026-04-30 08:05 50.79526 7.46169 10104 ft 264 kts 97°
2026-04-30 08:05 50.79269 7.49074 10712 ft 274 kts 96°
2026-04-30 08:05 50.78995 7.52183 10918 ft 297 kts 96°
2026-04-30 08:05 50.78701 7.55505 11286 ft 311 kts 96°
2026-04-30 08:06 50.78467 7.58930 11911 ft 316 kts 89°
2026-04-30 08:06 50.78683 7.62395 12597 ft 319 kts 79°
2026-04-30 08:06 50.79079 7.65854 13291 ft 321 kts 79°
2026-04-30 08:06 50.79476 7.69347 13986 ft 325 kts 79°
2026-04-30 08:07 50.79873 7.72875 14607 ft 328 kts 79°
2026-04-30 08:07 50.80269 7.76442 15203 ft 330 kts 79°
2026-04-30 08:07 50.80660 7.80037 15789 ft 333 kts 82°
2026-04-30 08:07 50.80600 7.83711 16339 ft 340 kts 100°
2026-04-30 08:08 50.79718 7.87154 16888 ft 349 kts 119°
2026-04-30 08:08 50.78299 7.90298 17456 ft 353 kts 122°
2026-04-30 08:08 50.76834 7.93436 18018 ft 356 kts 123°
2026-04-30 08:08 50.75350 7.96596 18577 ft 360 kts 123°
2026-04-30 08:09 50.73852 7.99779 19094 ft 363 kts 122°
2026-04-30 08:09 50.72343 8.02988 19542 ft 366 kts 122°
2026-04-30 08:09 50.70822 8.06231 20009 ft 369 kts 122°
2026-04-30 08:09 50.69293 8.09498 20488 ft 372 kts 122°
2026-04-30 08:10 50.67748 8.12800 20937 ft 375 kts 122°
2026-04-30 08:10 50.66189 8.16124 21391 ft 379 kts 122°
2026-04-30 08:10 50.64616 8.19472 21831 ft 382 kts 122°
2026-04-30 08:10 50.63028 8.22846 22273 ft 385 kts 122°
2026-04-30 08:11 50.61423 8.26244 22753 ft 388 kts 122°
2026-04-30 08:11 50.59805 8.29662 23171 ft 391 kts 122°
2026-04-30 08:11 50.58173 8.33108 23571 ft 394 kts 122°
2026-04-30 08:11 50.56529 8.36580 23993 ft 397 kts 122°
2026-04-30 08:12 50.54874 8.40075 24371 ft 400 kts 122°
2026-04-30 08:12 50.53208 8.43593 24720 ft 402 kts 122°
2026-04-30 08:12 50.51530 8.47129 25090 ft 404 kts 122°
2026-04-30 08:12 50.49846 8.50676 25444 ft 406 kts 122°
2026-04-30 08:13 50.48150 8.54238 25793 ft 408 kts 122°
2026-04-30 08:13 50.46440 8.57813 26142 ft 410 kts 122°
2026-04-30 08:13 50.44697 8.61372 26487 ft 414 kts 126°
2026-04-30 08:13 50.42676 8.64627 26825 ft 420 kts 131°
2026-04-30 08:14 50.40566 8.67805 27160 ft 421 kts 131°
2026-04-30 08:14 50.38451 8.71001 27497 ft 423 kts 131°
2026-04-30 08:14 50.36329 8.74206 27828 ft 425 kts 131°
2026-04-30 08:14 50.34197 8.77425 28158 ft 427 kts 131°
2026-04-30 08:15 50.32052 8.80658 28484 ft 429 kts 131°
2026-04-30 08:15 50.29899 8.83891 28826 ft 430 kts 131°
2026-04-30 08:15 50.27731 8.87134 29150 ft 432 kts 131°
2026-04-30 08:15 50.25554 8.90384 29461 ft 434 kts 131°
2026-04-30 08:16 50.23369 8.93646 29773 ft 435 kts 131°
2026-04-30 08:16 50.21177 8.96916 30070 ft 437 kts 131°
2026-04-30 08:16 50.18973 9.00197 30360 ft 439 kts 131°
2026-04-30 08:16 50.16762 9.03487 30610 ft 440 kts 131°
2026-04-30 08:17 50.14541 9.06792 30849 ft 442 kts 131°
2026-04-30 08:17 50.12312 9.10104 31094 ft 443 kts 131°
2026-04-30 08:17 50.10106 9.13372 31374 ft 443 kts 131°
2026-04-30 08:17 50.07877 9.16667 31740 ft 442 kts 131°
2026-04-30 08:18 50.05654 9.19951 32063 ft 441 kts 130°
2026-04-30 08:18 50.03431 9.23231 32383 ft 440 kts 130°
2026-04-30 08:18 50.01213 9.26502 32723 ft 439 kts 130°
2026-04-30 08:18 49.99003 9.29761 33049 ft 437 kts 130°
2026-04-30 08:19 49.96799 9.33012 33378 ft 436 kts 130°
2026-04-30 08:19 49.94602 9.36250 33706 ft 435 kts 130°
2026-04-30 08:19 49.92407 9.39483 34034 ft 434 kts 130°
2026-04-30 08:19 49.90221 9.42698 34352 ft 433 kts 131°
2026-04-30 08:20 49.88029 9.45908 34637 ft 433 kts 131°
2026-04-30 08:20 49.85838 9.49102 34888 ft 433 kts 131°
2026-04-30 08:20 49.83649 9.52294 35094 ft 433 kts 131°
2026-04-30 08:20 49.81456 9.55494 35332 ft 433 kts 131°
2026-04-30 08:21 49.79265 9.58693 35408 ft 432 kts 131°
2026-04-30 08:21 49.74906 9.65034 35403 ft 429 kts 131°
2026-04-30 08:22 49.70544 9.71344 35411 ft 429 kts 131°
2026-04-30 08:22 49.66190 9.77642 35410 ft 429 kts 131°
2026-04-30 08:23 49.61829 9.83924 35404 ft 429 kts 131°
2026-04-30 08:23 49.57462 9.90195 35405 ft 429 kts 131°
2026-04-30 08:24 49.53093 9.96467 35426 ft 429 kts 131°
2026-04-30 08:24 49.48719 10.02721 35422 ft 429 kts 131°
2026-04-30 08:25 49.44339 10.08958 35416 ft 429 kts 131°
2026-04-30 08:25 49.39955 10.15189 35414 ft 429 kts 131°
2026-04-30 08:26 49.35567 10.21411 35419 ft 429 kts 131°
2026-04-30 08:26 49.31217 10.27578 35437 ft 429 kts 131°
2026-04-30 08:27 49.26796 10.33828 35446 ft 430 kts 131°
2026-04-30 08:27 49.22157 10.39650 35444 ft 439 kts 142°
2026-04-30 08:28 49.16932 10.44399 35432 ft 440 kts 143°
2026-04-30 08:28 49.11676 10.49182 35440 ft 440 kts 143°
2026-04-30 08:29 49.06417 10.53962 35442 ft 440 kts 143°
2026-04-30 08:29 49.01159 10.58735 35425 ft 440 kts 143°
2026-04-30 08:30 48.95892 10.63483 35452 ft 440 kts 143°
2026-04-30 08:30 48.90623 10.68224 35424 ft 440 kts 143°
2026-04-30 08:31 48.85343 10.72970 35419 ft 441 kts 143°
2026-04-30 08:31 48.80366 10.78223 35407 ft 430 kts 130°
2026-04-30 08:32 48.76345 10.84827 35404 ft 426 kts 126°
2026-04-30 08:32 48.72377 10.91494 35391 ft 426 kts 126°
2026-04-30 08:33 48.68383 10.98147 35405 ft 427 kts 126°
2026-04-30 08:33 48.64387 11.04803 35399 ft 428 kts 126°
2026-04-30 08:34 48.60386 11.11465 35389 ft 428 kts 126°
2026-04-30 08:34 48.56378 11.18110 35385 ft 428 kts 126°
2026-04-30 08:35 48.52359 11.24751 35383 ft 429 kts 126°
2026-04-30 08:35 48.48333 11.31397 35401 ft 429 kts 126°
2026-04-30 08:36 48.44302 11.38044 35374 ft 430 kts 126°
2026-04-30 08:36 48.40260 11.44703 35379 ft 431 kts 126°
2026-04-30 08:37 48.36223 11.51324 35381 ft 432 kts 126°
2026-04-30 08:37 48.32158 11.57977 35387 ft 432 kts 126°
2026-04-30 08:38 48.28077 11.64623 35390 ft 433 kts 126°
2026-04-30 08:38 48.23880 11.71140 35406 ft 436 kts 130°
2026-04-30 08:39 48.19377 11.77294 35396 ft 439 kts 132°
2026-04-30 08:39 48.14800 11.83354 35391 ft 439 kts 131°
2026-04-30 08:40 48.10269 11.89486 35390 ft 439 kts 131°
2026-04-30 08:40 48.05775 11.95666 35387 ft 439 kts 131°
2026-04-30 08:41 48.01279 12.01827 35402 ft 439 kts 131°
2026-04-30 08:41 47.96755 12.07972 35377 ft 440 kts 131°
2026-04-30 08:42 47.92213 12.14121 35366 ft 441 kts 131°
2026-04-30 08:42 47.87666 12.20266 35365 ft 442 kts 131°
2026-04-30 08:43 47.83112 12.26407 35363 ft 442 kts 131°
2026-04-30 08:43 47.78550 12.32546 35353 ft 442 kts 131°
2026-04-30 08:44 47.74017 12.38640 35343 ft 443 kts 132°
2026-04-30 08:44 47.69442 12.44767 35337 ft 443 kts 132°
2026-04-30 08:45 47.64855 12.50885 35337 ft 444 kts 132°
2026-04-30 08:45 47.61015 12.56023 35329 ft 443 kts 131°
2026-04-30 08:46 47.56556 12.62313 35344 ft 443 kts 130°
2026-04-30 08:46 47.52145 12.68684 35353 ft 443 kts 130°
2026-04-30 08:47 47.47725 12.74975 35319 ft 445 kts 131°
2026-04-30 08:47 47.43213 12.81319 35312 ft 445 kts 131°
2026-04-30 08:48 47.38741 12.87575 35296 ft 446 kts 131°
2026-04-30 08:48 47.34237 12.93868 35300 ft 446 kts 131°
2026-04-30 08:49 47.29730 13.00163 35319 ft 447 kts 131°
2026-04-30 08:49 47.25210 13.06456 35306 ft 448 kts 132°
2026-04-30 08:50 47.20677 13.12752 35296 ft 449 kts 132°
2026-04-30 08:50 47.16138 13.19058 35295 ft 449 kts 132°
2026-04-30 08:51 47.11589 13.25360 35293 ft 450 kts 132°
2026-04-30 08:51 47.07029 13.31643 35321 ft 450 kts 133°
2026-04-30 08:52 47.02459 13.37935 35310 ft 451 kts 133°
2026-04-30 08:52 46.97878 13.44216 35298 ft 450 kts 133°
2026-04-30 08:53 46.93287 13.50499 35304 ft 452 kts 133°
2026-04-30 08:53 46.88687 13.56782 35317 ft 453 kts 133°
2026-04-30 08:54 46.84076 13.63067 35339 ft 454 kts 134°
2026-04-30 08:54 46.79453 13.69354 35341 ft 454 kts 134°
2026-04-30 08:55 46.74818 13.75631 35337 ft 455 kts 134°
2026-04-30 08:55 46.70169 13.81909 35345 ft 456 kts 134°
2026-04-30 08:56 46.65547 13.88157 35345 ft 457 kts 134°
2026-04-30 08:56 46.60876 13.94442 35366 ft 458 kts 135°
2026-04-30 08:57 46.56194 14.00718 35362 ft 458 kts 135°
2026-04-30 08:57 46.51507 14.07000 35369 ft 459 kts 135°
2026-04-30 08:58 46.46808 14.13276 35370 ft 460 kts 135°
2026-04-30 08:58 46.42091 14.19555 35397 ft 460 kts 135°
2026-04-30 08:59 46.37375 14.25832 35373 ft 461 kts 135°
2026-04-30 08:59 46.32652 14.32114 35369 ft 461 kts 135°
2026-04-30 09:00 46.27915 14.38382 35367 ft 462 kts 136°
2026-04-30 09:00 46.23166 14.44634 35360 ft 462 kts 136°
2026-04-30 09:01 46.18409 14.50890 35390 ft 463 kts 136°
2026-04-30 09:01 46.13643 14.57155 35375 ft 464 kts 136°
2026-04-30 09:02 46.06478 14.66542 35372 ft 464 kts 136°
2026-04-30 09:02 46.01693 14.72787 35376 ft 465 kts 136°
2026-04-30 09:03 45.96894 14.79029 35391 ft 465 kts 137°
2026-04-30 09:03 45.92091 14.85272 35394 ft 466 kts 137°
2026-04-30 09:04 45.87281 14.91518 35395 ft 466 kts 137°
2026-04-30 09:04 45.82462 14.97749 35403 ft 466 kts 137°
2026-04-30 09:05 45.77633 15.03963 35403 ft 467 kts 137°
2026-04-30 09:05 45.72836 15.10135 35425 ft 467 kts 138°
2026-04-30 09:06 45.68000 15.16344 35415 ft 467 kts 138°
2026-04-30 09:06 45.63157 15.22541 35414 ft 467 kts 138°
2026-04-30 09:07 45.58304 15.28722 35410 ft 467 kts 138°
2026-04-30 09:07 45.53466 15.34909 35406 ft 467 kts 137°
2026-04-30 09:08 45.48641 15.41115 35393 ft 467 kts 138°
2026-04-30 09:08 45.43806 15.47305 35392 ft 467 kts 138°
2026-04-30 09:09 45.38963 15.53486 35387 ft 468 kts 138°
2026-04-30 09:09 45.34108 15.59655 35391 ft 468 kts 138°
2026-04-30 09:10 45.29245 15.65818 35404 ft 469 kts 139°
2026-04-30 09:10 45.24372 15.71979 35378 ft 470 kts 139°
2026-04-30 09:11 45.19485 15.78146 35377 ft 471 kts 139°
2026-04-30 09:11 45.14589 15.84315 35379 ft 471 kts 139°
2026-04-30 09:12 45.09680 15.90472 35373 ft 472 kts 139°
2026-04-30 09:12 45.04773 15.96626 35384 ft 472 kts 139°
2026-04-30 09:13 44.99858 16.02782 35362 ft 472 kts 140°
2026-04-30 09:15 44.95036 16.08644 35368 ft 473 kts 140°
2026-04-30 09:15 44.90114 16.14827 35361 ft 474 kts 139°
2026-04-30 09:16 44.85195 16.21043 35376 ft 475 kts 140°
2026-04-30 09:16 44.80281 16.27157 35360 ft 475 kts 140°
2026-04-30 09:17 44.75309 16.33274 35336 ft 475 kts 140°
2026-04-30 09:17 44.70327 16.39398 35335 ft 476 kts 140°
2026-04-30 09:18 44.65341 16.45526 35330 ft 476 kts 140°
2026-04-30 09:18 44.60352 16.51651 35333 ft 477 kts 141°
2026-04-30 09:19 44.55360 16.57770 35297 ft 477 kts 141°
2026-04-30 09:19 44.50352 16.63883 35305 ft 477 kts 141°
2026-04-30 09:20 44.45343 16.69991 35298 ft 478 kts 141°
2026-04-30 09:20 44.40323 16.76103 35323 ft 478 kts 141°
2026-04-30 09:21 44.35303 16.82194 35313 ft 478 kts 141°
2026-04-30 09:21 44.30271 16.88275 35291 ft 478 kts 142°
2026-04-30 09:22 44.25235 16.94342 35280 ft 478 kts 142°
2026-04-30 09:22 44.20201 17.00406 35300 ft 479 kts 142°
2026-04-30 09:23 44.15159 17.06475 35283 ft 479 kts 142°
2026-04-30 09:23 44.10143 17.12478 35283 ft 479 kts 142°
2026-04-30 09:24 44.05091 17.18510 35243 ft 479 kts 143°
2026-04-30 09:24 44.00029 17.24537 35250 ft 480 kts 143°
2026-04-30 09:25 43.94958 17.30577 35239 ft 481 kts 143°
2026-04-30 09:25 43.89880 17.36616 35248 ft 481 kts 143°
2026-04-30 09:26 43.84795 17.42644 35237 ft 481 kts 143°
2026-04-30 09:26 43.79697 17.48666 35206 ft 482 kts 143°
2026-04-30 09:27 43.74522 17.54548 35214 ft 479 kts 151°
2026-04-30 09:27 43.69001 17.59681 35195 ft 479 kts 151°
2026-04-30 09:28 43.63476 17.64824 35213 ft 479 kts 151°
2026-04-30 09:28 43.57953 17.69969 35170 ft 479 kts 152°
2026-04-30 09:29 43.52423 17.75091 35200 ft 480 kts 152°
2026-04-30 09:29 43.46867 17.80216 35199 ft 481 kts 152°
2026-04-30 09:30 43.41319 17.85333 35168 ft 480 kts 152°
2026-04-30 09:30 43.35767 17.90446 35176 ft 481 kts 152°
2026-04-30 09:31 43.30248 17.95517 35178 ft 481 kts 152°
2026-04-30 09:31 43.24684 18.00616 35177 ft 481 kts 152°
2026-04-30 09:32 43.19119 18.05695 35183 ft 481 kts 152°
2026-04-30 09:32 43.13546 18.10764 35166 ft 482 kts 153°
2026-04-30 09:33 43.07953 18.15848 35172 ft 483 kts 153°
2026-04-30 09:33 43.03297 18.20073 35170 ft 483 kts 153°
2026-04-30 09:34 42.97694 18.25159 35169 ft 483 kts 153°
2026-04-30 09:34 42.92088 18.30233 35151 ft 483 kts 153°
2026-04-30 09:35 42.86476 18.35284 35152 ft 483 kts 153°
2026-04-30 09:35 42.80864 18.40329 35144 ft 483 kts 153°
2026-04-30 09:36 42.75261 18.45361 35137 ft 482 kts 153°
2026-04-30 09:36 42.69666 18.50384 35100 ft 482 kts 153°
2026-04-30 09:37 42.64068 18.55397 35125 ft 481 kts 153°
2026-04-30 09:37 42.58478 18.60378 35131 ft 481 kts 153°
2026-04-30 09:38 42.52884 18.65349 35130 ft 481 kts 153°
2026-04-30 09:38 42.47286 18.70321 35106 ft 481 kts 153°
2026-04-30 09:39 42.41695 18.75278 35118 ft 481 kts 153°
2026-04-30 09:39 42.36096 18.80224 35121 ft 481 kts 153°
2026-04-30 09:40 42.30501 18.85157 35121 ft 480 kts 153°
2026-04-30 09:40 42.24940 18.90058 35126 ft 480 kts 153°
2026-04-30 09:41 42.19338 18.94984 35116 ft 481 kts 153°
2026-04-30 09:41 42.13741 18.99897 35096 ft 480 kts 153°
2026-04-30 09:42 42.08140 19.04792 35100 ft 480 kts 153°
2026-04-30 09:42 42.02541 19.09672 35097 ft 480 kts 153°
2026-04-30 09:43 41.96941 19.14550 35087 ft 479 kts 153°
2026-04-30 09:43 41.91345 19.19409 35102 ft 478 kts 153°
2026-04-30 09:44 41.85758 19.24259 35098 ft 478 kts 153°
2026-04-30 09:44 41.80178 19.29105 35102 ft 478 kts 153°
2026-04-30 09:45 41.74971 19.34711 35074 ft 485 kts 140°
2026-04-30 09:45 41.70142 19.41010 35096 ft 484 kts 140°
2026-04-30 09:46 41.65349 19.47240 35106 ft 483 kts 140°
2026-04-30 09:46 41.60530 19.53503 35106 ft 483 kts 140°
2026-04-30 09:47 41.55711 19.59747 35096 ft 483 kts 140°
2026-04-30 09:47 41.50883 19.65978 35072 ft 483 kts 140°
2026-04-30 09:48 41.46057 19.72183 35119 ft 482 kts 140°
2026-04-30 09:48 41.41233 19.78369 35125 ft 481 kts 140°
2026-04-30 09:49 41.36420 19.84549 35122 ft 481 kts 140°
2026-04-30 09:49 41.31608 19.90719 35102 ft 480 kts 140°
2026-04-30 09:50 41.26791 19.96872 35088 ft 480 kts 140°
2026-04-30 09:50 41.21972 20.03023 35061 ft 480 kts 140°
2026-04-30 09:51 41.17154 20.09149 35062 ft 479 kts 140°
2026-04-30 09:51 41.12330 20.15260 35053 ft 479 kts 140°
2026-04-30 09:52 41.07510 20.21365 35056 ft 479 kts 140°
2026-04-30 09:52 41.02693 20.27461 35058 ft 479 kts 140°
2026-04-30 09:53 40.97901 20.33502 35067 ft 479 kts 140°
2026-04-30 09:53 40.93071 20.39580 35057 ft 479 kts 140°
2026-04-30 09:54 40.88245 20.45641 35053 ft 479 kts 140°
2026-04-30 09:54 40.83411 20.51694 35052 ft 479 kts 140°
2026-04-30 09:55 40.78584 20.57737 35051 ft 478 kts 140°
2026-04-30 09:55 40.73750 20.63774 35044 ft 478 kts 141°
2026-04-30 09:56 40.68920 20.69785 35039 ft 476 kts 140°
2026-04-30 09:56 40.64106 20.75767 35045 ft 475 kts 140°
2026-04-30 09:57 40.59303 20.81723 35045 ft 474 kts 140°
2026-04-30 09:57 40.54498 20.87658 35043 ft 472 kts 140°
2026-04-30 09:58 40.49710 20.93564 35041 ft 472 kts 140°
2026-04-30 09:58 40.44890 20.99402 35020 ft 471 kts 142°
2026-04-30 09:59 40.35087 21.10585 35048 ft 467 kts 142°
2026-04-30 10:00 40.27753 21.18971 35043 ft 466 kts 142°
2026-04-30 10:01 40.20447 21.27352 35042 ft 465 kts 142°
2026-04-30 10:02 40.13150 21.35690 35021 ft 464 kts 142°
2026-04-30 10:02 40.08288 21.41224 35027 ft 463 kts 142°
2026-04-30 10:03 40.03435 21.46741 35023 ft 463 kts 142°
2026-04-30 10:03 39.98582 21.52252 35021 ft 462 kts 142°
2026-04-30 10:04 39.93738 21.57746 35026 ft 462 kts 142°
2026-04-30 10:04 39.88885 21.63229 35008 ft 462 kts 142°
2026-04-30 10:05 39.84032 21.68700 35013 ft 462 kts 142°
2026-04-30 10:05 39.79175 21.74164 35015 ft 462 kts 142°
2026-04-30 10:06 39.74317 21.79624 35030 ft 461 kts 142°
2026-04-30 10:06 39.69464 21.85074 35022 ft 461 kts 142°
2026-04-30 10:07 39.64606 21.90508 35005 ft 461 kts 143°
2026-04-30 10:07 39.59744 21.95929 35016 ft 461 kts 143°
2026-04-30 10:08 39.54913 22.01317 35021 ft 461 kts 143°
2026-04-30 10:08 39.50048 22.06725 35025 ft 461 kts 143°
2026-04-30 10:09 39.45183 22.12128 35027 ft 461 kts 143°
2026-04-30 10:09 39.40317 22.17529 35025 ft 461 kts 143°
2026-04-30 10:10 39.35444 22.22917 35013 ft 461 kts 143°
2026-04-30 10:10 39.30570 22.28300 35019 ft 461 kts 143°
2026-04-30 10:11 39.25691 22.33680 35026 ft 461 kts 143°
2026-04-30 10:11 39.20812 22.39054 35032 ft 461 kts 143°
2026-04-30 10:12 39.15926 22.44419 35032 ft 461 kts 143°
2026-04-30 10:12 39.11043 22.49764 35017 ft 461 kts 143°
2026-04-30 10:13 39.06160 22.55096 35034 ft 460 kts 143°
2026-04-30 10:13 39.01277 22.60417 35043 ft 460 kts 143°
2026-04-30 10:14 38.96429 22.65704 35042 ft 459 kts 143°
2026-04-30 10:14 38.89118 22.73663 35053 ft 459 kts 143°
2026-04-30 10:15 38.84235 22.78954 35054 ft 459 kts 143°
2026-04-30 10:15 38.79349 22.84223 35053 ft 459 kts 143°
2026-04-30 10:16 38.74472 22.89490 35058 ft 458 kts 143°
2026-04-30 10:17 38.67167 22.97385 35057 ft 458 kts 143°
2026-04-30 10:17 38.59855 23.05246 35056 ft 458 kts 143°
2026-04-30 10:18 38.54977 23.10470 35029 ft 457 kts 143°
2026-04-30 10:19 38.47665 23.18289 35033 ft 457 kts 143°
2026-04-30 10:19 38.42787 23.23498 35035 ft 457 kts 143°
2026-04-30 10:20 38.37907 23.28702 35036 ft 457 kts 143°
2026-04-30 10:20 38.30582 23.36494 35041 ft 458 kts 143°
2026-04-30 10:21 38.25694 23.41679 35043 ft 458 kts 143°
2026-04-30 10:21 38.21621 23.45987 35024 ft 458 kts 144°
2026-04-30 10:22 38.16717 23.51165 35021 ft 459 kts 143°
2026-04-30 10:22 38.11014 23.57199 35022 ft 459 kts 143°
2026-04-30 10:23 38.06902 23.61535 35023 ft 459 kts 144°
2026-04-30 10:23 38.01986 23.66706 35025 ft 459 kts 144°
2026-04-30 10:24 37.97072 23.71857 35020 ft 459 kts 144°
2026-04-30 10:24 37.92146 23.77003 35036 ft 459 kts 144°
2026-04-30 10:25 37.87466 23.82529 35038 ft 464 kts 133°
2026-04-30 10:25 37.83326 23.88788 35041 ft 464 kts 133°
2026-04-30 10:26 37.79185 23.94976 35045 ft 464 kts 133°
2026-04-30 10:26 37.75005 24.01199 35053 ft 464 kts 133°
2026-04-30 10:27 37.70825 24.07419 35054 ft 464 kts 133°
2026-04-30 10:27 37.66645 24.13644 35035 ft 465 kts 133°
2026-04-30 10:28 37.62455 24.19876 35037 ft 466 kts 133°
2026-04-30 10:28 37.58247 24.26111 35044 ft 467 kts 133°
2026-04-30 10:29 37.53515 24.31592 35044 ft 459 kts 150°
2026-04-30 10:29 37.48124 24.35852 35046 ft 458 kts 152°
2026-04-30 10:30 37.42710 24.40087 35049 ft 458 kts 152°
2026-04-30 10:30 37.37297 24.44332 35029 ft 459 kts 152°
2026-04-30 10:31 37.31871 24.48581 35037 ft 460 kts 152°
2026-04-30 10:31 37.26436 24.52831 35039 ft 460 kts 152°
2026-04-30 10:32 37.20995 24.57082 35044 ft 461 kts 152°
2026-04-30 10:32 37.15546 24.61324 35048 ft 461 kts 153°
2026-04-30 10:33 37.10089 24.65559 35041 ft 461 kts 152°
2026-04-30 10:33 37.04633 24.69794 35046 ft 462 kts 152°
2026-04-30 10:34 36.99172 24.74028 35053 ft 462 kts 152°
2026-04-30 10:34 36.96471 24.76117 34496 ft 466 kts 152°
2026-04-30 10:34 36.93707 24.78251 33861 ft 465 kts 152°
2026-04-30 10:35 36.90967 24.80370 33336 ft 461 kts 152°
2026-04-30 10:35 36.88258 24.82471 32823 ft 456 kts 152°
2026-04-30 10:35 36.85579 24.84551 32314 ft 451 kts 152°
2026-04-30 10:35 36.82923 24.86608 31815 ft 448 kts 152°
2026-04-30 10:36 36.80287 24.88645 31313 ft 444 kts 152°
2026-04-30 10:36 36.77672 24.90661 30835 ft 440 kts 152°
2026-04-30 10:36 36.75076 24.92659 30351 ft 437 kts 152°
2026-04-30 10:36 36.72504 24.94638 29843 ft 433 kts 151°
2026-04-30 10:37 36.69956 24.96601 29384 ft 427 kts 151°
2026-04-30 10:37 36.67446 24.98536 28944 ft 421 kts 151°
2026-04-30 10:37 36.64970 25.00438 28514 ft 416 kts 152°
2026-04-30 10:37 36.62523 25.02317 28079 ft 410 kts 151°
2026-04-30 10:38 36.60107 25.04170 27645 ft 405 kts 151°
2026-04-30 10:38 36.57719 25.05997 27234 ft 400 kts 151°
2026-04-30 10:38 36.55359 25.07799 26804 ft 396 kts 152°
2026-04-30 10:38 36.53020 25.09582 26382 ft 392 kts 152°
2026-04-30 10:39 36.50702 25.11348 25945 ft 389 kts 151°
2026-04-30 10:39 36.48403 25.13104 25508 ft 387 kts 151°
2026-04-30 10:39 36.46116 25.14851 25071 ft 384 kts 151°
2026-04-30 10:39 36.43846 25.16584 24618 ft 383 kts 151°
2026-04-30 10:40 36.41583 25.18310 24168 ft 381 kts 151°
2026-04-30 10:40 36.39328 25.20027 23711 ft 380 kts 151°
2026-04-30 10:40 36.37110 25.21713 23214 ft 378 kts 151°
2026-04-30 10:40 36.34877 25.23410 22766 ft 375 kts 151°
2026-04-30 10:41 36.32662 25.25095 22316 ft 372 kts 151°
2026-04-30 10:41 36.30464 25.26763 21887 ft 369 kts 151°
2026-04-30 10:41 36.28276 25.28420 21454 ft 367 kts 151°
2026-04-30 10:41 36.26104 25.30064 21025 ft 365 kts 151°
2026-04-30 10:42 36.23942 25.31700 20597 ft 363 kts 151°
2026-04-30 10:42 36.21792 25.33328 20177 ft 361 kts 151°
2026-04-30 10:42 36.19651 25.34948 19762 ft 360 kts 151°
2026-04-30 10:42 36.17520 25.36558 19346 ft 358 kts 150°
2026-04-30 10:43 36.15397 25.38164 18927 ft 357 kts 150°
2026-04-30 10:43 36.13281 25.39760 18520 ft 356 kts 152°
2026-04-30 10:43 36.11042 25.41020 18080 ft 352 kts 164°
2026-04-30 10:43 36.08720 25.41944 17677 ft 349 kts 165°
2026-04-30 10:44 36.06415 25.42863 17263 ft 347 kts 165°
2026-04-30 10:44 36.04127 25.43782 16877 ft 345 kts 164°
2026-04-30 10:44 36.01848 25.44700 16487 ft 343 kts 164°
2026-04-30 10:44 35.99586 25.45616 16101 ft 342 kts 164°
2026-04-30 10:45 35.97328 25.46530 15716 ft 341 kts 164°
2026-04-30 10:45 35.95081 25.47440 15335 ft 340 kts 164°
2026-04-30 10:45 35.92838 25.48348 14954 ft 339 kts 164°
2026-04-30 10:45 35.90601 25.49247 14570 ft 338 kts 164°
2026-04-30 10:46 35.88369 25.50138 14188 ft 337 kts 164°
2026-04-30 10:46 35.86141 25.51030 13798 ft 336 kts 164°
2026-04-30 10:46 35.83919 25.51921 13385 ft 335 kts 164°
2026-04-30 10:46 35.81710 25.52806 12989 ft 333 kts 164°
2026-04-30 10:47 35.79516 25.53685 12610 ft 330 kts 164°
2026-04-30 10:47 35.77339 25.54559 12222 ft 328 kts 164°
2026-04-30 10:47 35.75170 25.55426 11823 ft 327 kts 164°
2026-04-30 10:47 35.73014 25.56285 11435 ft 325 kts 163°
2026-04-30 10:48 35.70867 25.57147 11032 ft 324 kts 162°
2026-04-30 10:48 35.68849 25.58367 10624 ft 325 kts 147°
2026-04-30 10:48 35.67092 25.60042 10294 ft 321 kts 142°
2026-04-30 10:48 35.65359 25.61759 10168 ft 310 kts 142°
2026-04-30 10:49 35.63719 25.63375 9899 ft 303 kts 142°
2026-04-30 10:49 35.62067 25.64954 9291 ft 297 kts 147°
2026-04-30 10:49 35.60170 25.65846 8676 ft 290 kts 174°
2026-04-30 10:49 35.58182 25.65740 8583 ft 287 kts 195°
2026-04-30 10:50 35.56371 25.64775 8521 ft 284 kts 217°
2026-04-30 10:50 35.54818 25.63295 8444 ft 278 kts 220°
2026-04-30 10:50 35.53345 25.61849 8387 ft 265 kts 220°
2026-04-30 10:50 35.51925 25.60447 8318 ft 261 kts 220°
2026-04-30 10:51 35.50520 25.59054 8072 ft 258 kts 220°
2026-04-30 10:51 35.49131 25.57677 7724 ft 256 kts 220°
2026-04-30 10:51 35.47741 25.56304 7364 ft 256 kts 219°
2026-04-30 10:51 35.46353 25.54941 7026 ft 255 kts 219°
2026-04-30 10:52 35.44977 25.53589 6697 ft 253 kts 219°
2026-04-30 10:52 35.43606 25.52240 6380 ft 251 kts 219°
2026-04-30 10:52 35.42269 25.50924 6020 ft 242 kts 219°
2026-04-30 10:52 35.40978 25.49654 5710 ft 234 kts 219°
2026-04-30 10:53 35.39732 25.48431 5407 ft 226 kts 219°
2026-04-30 10:53 35.38526 25.47249 5124 ft 218 kts 219°
2026-04-30 10:53 35.37357 25.46104 4835 ft 212 kts 219°
2026-04-30 10:53 35.36310 25.44885 4573 ft 205 kts 234°
2026-04-30 10:54 35.35642 25.43384 4295 ft 198 kts 245°
2026-04-30 10:54 35.35065 25.41868 4027 ft 194 kts 245°
2026-04-30 10:54 35.34494 25.40386 3766 ft 191 kts 245°
2026-04-30 10:54 35.33926 25.38913 3507 ft 190 kts 245°
2026-04-30 10:55 35.33362 25.37448 3256 ft 190 kts 245°
2026-04-30 10:55 35.32882 25.35945 2988 ft 189 kts 258°
2026-04-30 10:55 35.32805 25.34344 2734 ft 189 kts 273°
2026-04-30 10:55 35.32908 25.32741 2487 ft 189 kts 276°
2026-04-30 10:56 35.33040 25.31159 2309 ft 184 kts 277°
2026-04-30 10:56 35.33175 25.29624 2021 ft 176 kts 276°
2026-04-30 10:56 35.33286 25.28162 1756 ft 169 kts 275°
2026-04-30 10:56 35.33375 25.26754 1436 ft 162 kts 275°
2026-04-30 10:57 35.33462 25.25426 1170 ft 151 kts 275°
2026-04-30 10:57 35.33559 25.24167 913 ft 145 kts 277°
2026-04-30 10:57 35.33642 25.22961 692 ft 144 kts 274°
2026-04-30 10:57 35.33683 25.22073 567 ft 143 kts 276°
2026-04-30 11:07 35.33728 25.21644 451 ft 144 kts 281°
2026-04-30 11:07 35.33766 25.21427 362 ft 146 kts 285°
2026-04-30 11:07 35.33819 25.20211 264 ft 143 kts 272°
2026-04-30 11:08 35.33905 25.18989 144 ft 144 kts 278°
2026-04-30 11:08 35.33994 25.17858 93 ft 108 kts 276°
2026-04-30 11:08 35.34032 25.17278 90 ft 38 kts 271°
2026-04-30 11:08 35.33985 25.17068 90 ft 19 kts 239°
2026-04-30 11:09 35.33935 25.17080 90 ft 8 kts 95°
2026-04-30 11:09 35.33937 25.17159 90 ft 10 kts 94°
2026-04-30 11:09 35.33929 25.17255 91 ft 13 kts 95°
2026-04-30 11:09 35.33921 25.17375 91 ft 16 kts 95°
2026-04-30 11:10 35.33911 25.17510 94 ft 16 kts 95°
2026-04-30 11:10 35.33891 25.17624 92 ft 10 kts 144°
2026-04-30 11:10 35.33819 25.17619 92 ft 11 kts 186°
2026-04-30 11:10 35.33759 25.17592 91 ft 8 kts 243°
2026-04-30 11:11 35.33758 25.17552 91 ft 5 kts 275°
2026-04-30 11:11 35.33760 25.17533 91 ft 0 kts 275°